Doha, Qatar

3:33 AM +03 on September 20, 2017 (GMT +0300)
Doha International

Weather History for OTBD - October, 2011

Change the Weather History Date:

Thursday, October 20, 2011

  Actual Average Record
Temperature  
Mean Temperature 90 °F -  
Max Temperature 102 °F 88 °F 103 °F (2014)
Min Temperature 78 °F 69 °F 75 °F (1998)
Cooling Degree Days 25    
Growing Degree Days 40 (Base 50)    
Moisture  
Dew Point 59 °F    
Average Humidity 43    
Maximum Humidity 79    
Minimum Humidity 6    
Precipitation  
Precipitation 0.00 in 0.00 in - ()
Sea Level Pressure  
Sea Level Pressure 29.82 in    
Wind  
Wind Speed 7 mph ()    
Max Wind Speed 14 mph    
Max Gust Speed -    
Visibility 4.9 miles    
Events      
Averages and records for this station are not official NWS values.
T = Trace of Precipitation, MM = Missing Value Source: Averaged Metar Reports

Daily Weather History Graph

Daily Weather History Graph

Search for Another Location

Airport or City:

Trip Planner

Search our weather history database for the weather conditions in past years. The results will help you decide how hot, cold, wet, or windy it might be!

Date:

Astronomy

Oct. 20, 2011 Rise Set
Actual Time 5:34 AM +03 5:02 PM +03
Civil Twilight 5:11 AM +03 5:25 PM +03
Nautical Twilight 4:44 AM +03 5:52 PM +03
Astronomical Twilight 4:17 AM +03 6:19 PM +03
Moon 11:38 PM +03 12:15 PM +03
Length of Visible Light 12h 14m
Length of Day
11h 28m
Waning Gibbous, 47% of the Moon is Illuminated
Oct 20
Waning Gibbous
Oct 26
New
Nov 2
First Quarter
Nov 10
Full
Nov 18
Last Quarter

Hourly Weather History & Observations

Time (+03) Temp. Heat Index Dew Point Humidity Pressure Visibility Wind Dir Wind Speed Gust Speed Precip Events Conditions
12:00 AM 82.4 °F 87.2 °F 71.6 °F 70% 29.83 in 4.3 mi SW 5.8 mph - N/A   Unknown
12:30 AM 82.4 °F 87.2 °F 71.6 °F 70% 29.80 in 4.3 mi SW 5.8 mph - N/A   Unknown
1:00 AM 82.4 °F 87.2 °F 71.6 °F 70% 29.80 in 4.3 mi WSW 4.6 mph - N/A   Unknown
1:30 AM 80.6 °F 84.6 °F 71.6 °F 74% 29.80 in 4.3 mi WSW 4.6 mph - N/A   Unknown
2:00 AM 80.6 °F 84.6 °F 71.6 °F 74% 29.80 in 4.3 mi SW 6.9 mph - N/A   Unknown
2:30 AM 80.6 °F 85.4 °F 73.4 °F 79% 29.80 in 4.3 mi WSW 5.8 mph - N/A   Unknown
3:00 AM 81 °F - 72 °F 67% 29.81 in 5 mi SW 4.6 mph - -   Haze
3:00 AM 80.6 °F 84.6 °F 71.6 °F 74% 29.80 in 5.0 mi SW 4.6 mph - N/A   Unknown
3:30 AM 80.6 °F 83.9 °F 69.8 °F 70% 29.80 in 5.0 mi WSW 5.8 mph - N/A   Unknown
4:00 AM 78.8 °F - 69.8 °F 74% 29.80 in 5.0 mi SW 6.9 mph - N/A   Unknown
4:30 AM 78.8 °F - 68.0 °F 69% 29.80 in 5.0 mi WSW 4.6 mph - N/A   Unknown
5:00 AM 78.8 °F - 62.6 °F 57% 29.80 in 5.0 mi WSW 6.9 mph - N/A   Unknown
5:30 AM 80.6 °F 81.1 °F 59.0 °F 48% 29.80 in 4.3 mi WSW 5.8 mph - N/A   Unknown
6:00 AM 80.6 °F 80.8 °F 57.2 °F 45% 29.80 in 3.7 mi WSW 5.8 mph - N/A   Unknown
6:30 AM 80.6 °F 80.5 °F 55.4 °F 42% 29.83 in 5.0 mi WSW 8.1 mph - N/A   Unknown
7:00 AM 82.4 °F 82.5 °F 59.0 °F 45% 29.83 in 5.0 mi WSW 4.6 mph - N/A   Unknown
7:30 AM 84.2 °F 84.4 °F 60.8 °F 45% 29.86 in 4.3 mi West 4.6 mph - N/A   Unknown
8:00 AM 86.0 °F 86.1 °F 60.8 °F 43% 29.86 in 4.3 mi WSW 6.9 mph - N/A   Unknown
8:30 AM 89.6 °F 87.3 °F 53.6 °F 29% 29.86 in 4.3 mi West 8.1 mph - N/A   Unknown
9:00 AM 90 °F - 50 °F 16% 29.88 in 4 mi West 8.1 mph - -   Widespread Dust
9:00 AM 91.4 °F - 50.0 °F 24% 29.86 in 4.3 mi West 8.1 mph - N/A   Unknown
9:30 AM 93.2 °F - 50.0 °F 23% 29.86 in 4.3 mi West 8.1 mph - N/A   Unknown
10:00 AM 95.0 °F - 48.2 °F 20% 29.86 in 4.3 mi WNW 8.1 mph - N/A   Unknown
10:30 AM 96.8 °F - 44.6 °F 17% 29.83 in 4.3 mi Variable 9.2 mph - N/A   Unknown
11:00 AM 96.8 °F - 44.6 °F 17% 29.83 in 5.0 mi NW 10.4 mph - N/A   Unknown
11:30 AM 98.6 °F - 44.6 °F 16% 29.80 in 5.0 mi NW 11.5 mph - N/A   Unknown
12:00 PM 98.6 °F - 44.6 °F 16% 29.80 in 5.6 mi NW 11.5 mph - N/A   Unknown
12:30 PM 100.4 °F - 39.2 °F 12% 29.80 in 5.6 mi NW 9.2 mph - N/A   Unknown
1:30 PM 100.4 °F - 44.6 °F 15% 29.77 in 5.6 mi North 13.8 mph - N/A   Unknown
2:00 PM 100.4 °F - 44.6 °F 15% 29.77 in 5.6 mi North 13.8 mph - N/A   Unknown
3:00 PM 101 °F - 38 °F 6% 29.78 in 6 mi NNW 11.5 mph - -   Widespread Dust
3:00 PM 100.4 °F - 39.2 °F 12% 29.77 in 5.6 mi NNW 11.5 mph - N/A   Unknown
3:30 PM 100.4 °F - 39.2 °F 12% 29.77 in 5.6 mi NNW 13.8 mph - N/A   Unknown
4:00 PM 98.6 °F - 42.8 °F 15% 29.80 in 5.6 mi NNW 11.5 mph - N/A   Unknown
4:30 PM 96.8 °F - 44.6 °F 17% 29.80 in 5.6 mi NNW 12.7 mph - N/A   Unknown
5:00 PM 95.0 °F - 44.6 °F 18% 29.80 in 5.6 mi NW 9.2 mph - N/A   Unknown
5:30 PM 93.2 °F - 51.8 °F 24% 29.80 in 5.6 mi NW 9.2 mph - N/A   Unknown
6:00 PM 91.4 °F 91.4 °F 60.8 °F 36% 29.80 in 5.6 mi NW 10.4 mph - N/A   Unknown
6:30 PM 89.6 °F 93.4 °F 68.0 °F 49% 29.83 in - NW 9.2 mph - N/A   Clear
7:00 PM 89.6 °F 90.1 °F 62.6 °F 40% 29.83 in - NW 8.1 mph - N/A   Clear
7:30 PM 89.6 °F 88.9 °F 59.0 °F 36% 29.83 in - NNW 6.9 mph - N/A   Clear
8:00 PM 89.6 °F 89.5 °F 60.8 °F 38% 29.83 in - NW 8.1 mph - N/A   Clear
8:30 PM 86.0 °F 90.4 °F 69.8 °F 58% 29.83 in - NW 10.4 mph - N/A   Clear
9:00 PM 86 °F - 71 °F 53% 29.86 in 7 mi NW 10.4 mph - -  
9:00 PM 86.0 °F 91.8 °F 71.6 °F 62% 29.86 in - NW 10.4 mph - N/A   Clear
9:30 PM 84.2 °F 89.6 °F 71.6 °F 66% 29.83 in - NW 11.5 mph - N/A   Clear
10:00 PM 84.2 °F 90.9 °F 73.4 °F 70% 29.86 in - NW 11.5 mph - N/A   Clear
10:30 PM 84.2 °F 90.9 °F 73.4 °F 70% 29.83 in - NW 11.5 mph - N/A   Clear
11:00 PM 84.2 °F 90.9 °F 73.4 °F 70% 29.86 in - NW 11.5 mph - N/A   Clear
11:30 PM 84.2 °F 89.6 °F 71.6 °F 66% 29.86 in - NW 9.2 mph - N/A   Clear